Location: Bemmer
(51.5498°N, 5.6249°E)
Time: 03:04:16
(UTC+00:00)

Cosmos 1486 Rocket - Pass Details

Date: 03 March 2021
Orbit: 758 x 784 km, 74.1° (Epoch: 12 April)

Event Time Altitude Azimuth Distance (km) Brightness Sun altitude
Rises 17:50:37 0° 335° (NNW) 3,255 7.6 -5.3°
Reaches altitude 10° 17:53:00 10° 337° (NNW) 2,328 6.8 -5.7°
Maximum altitude 17:58:18 81° 64° (ENE) 792 4.0 -6.5°
Drops below altitude 10° 18:03:37 10° 153° (SSE) 2,328 6.3 -7.3°
Sets 18:06:00 0° 154° (SSE) 3,255 7.0 -7.7°
